Regional Weather Roundup
Issued by NWS

Home | Current Version | Previous Version | Text Only | Print | Product List | Glossary Off
Versions: 1 2 3 4 5 6 7 8 9 10 11 12 13 14 15 16 17 18 19 20 21 22 23 24 25 26 27 28 29 30 31 32 33 34 35 36 37 38 39 40 41 42 43 44 45 46 47 48 49 50

000
ASUS43 KOAX 051110
RWRNE

WEATHER ROUNDUP FOR NEBRASKA
NATIONAL WEATHER SERVICE OMAHA NE
500 AM CST THU MAR 05 2015

NOTES: SATELLITE DATA IS BEING USED TO AUGMENT CLOUD COVER ABOVE
       12000 FEET.
       "FAIR" INDICATES FEW OR NO CLOUDS BELOW 12,000 FEET WITH NO
       SIGNIFICANT WEATHER AND/OR OBSTRUCTIONS TO VISIBILITY.

  * THESE STATIONS DO NOT REPORT WEATHER SUCH AS RAIN...SNOW OR FOG.

NEZ001>004-019>022-054>056-051200-
NEBRASKA PANHANDLE

CITY           SKY/WX    TMP DP  RH WIND       PRES   REMARKS
SCOTTSBLUFF    PTCLDY     7   0  73 CALM      30.19F
ALLIANCE       PTCLDY    -2  -7  79 SW6       30.17F WCI -14
CHADRON        MOCLDY    -6 -11  79 SW3       30.19F
KIMBALL        CLEAR     12   6  78 SW9       30.13F WCI   0
SIDNEY         CLEAR      6   2  83 SW3       30.18F
$$

NEZ057>060-069>072-079>082-051200-
SOUTHWEST NEBRASKA

CITY           SKY/WX    TMP DP  RH WIND       PRES   REMARKS
NORTH PLATTE   CLEAR      1  -4  79 E6        30.31S WCI -10
IMPERIAL         N/A      7   2  80 CALM      30.26F
LEXINGTON      CLEAR      2  -2  83 CALM      30.36S
MCCOOK         CLEAR     10   1  67 E5        30.34S WCI   2
OGALLALA       CLEAR      3   0  87 CALM      30.25F
$$

NEZ005>010-023>029-035>040-094-051200-
NORTH CENTRAL NEBRASKA

CITY           SKY/WX    TMP DP  RH WIND       PRES   REMARKS
VALENTINE      PTCLDY    -3  -7  82 SW5       30.28F WCI -13
AINSWORTH      CLEAR      3  -2  79 SW8       30.29F WCI -10
BROKEN BOW     CLEAR     -2  -9  72 CALM      30.33F
O`NEILL        CLEAR     -1  -6  82 SW6       30.36S WCI -13
ORD            CLEAR     -3  -8  79 S3        30.38S
THEDFORD       CLEAR      4  -1  80 CALM      30.28S
$$

NEZ041-046>049-061>064-073>077-083>087-051200-
SOUTH CENTRAL NEBRASKA

CITY           SKY/WX    TMP DP  RH WIND       PRES   REMARKS
GRAND ISLAND   CLEAR      4  -2  76 SW3       30.43S
AURORA         CLEAR      0  -5  78 CALM      30.42S
HASTINGS       CLEAR      4  -4  69 CALM      30.40S
HEBRON         CLEAR      5   0  78 CALM      30.47R
HOLDREGE       CLEAR      5  -2  72 E3        30.37S
KEARNEY *      CLEAR      3  -2  78 CALM      30.39R
YORK           CLEAR      1  -2  85 CALM      30.44S
$$

NEZ011>018-030>034-042>045-051200-
NORTHEAST NEBRASKA

CITY           SKY/WX    TMP DP  RH WIND       PRES   REMARKS
NORFOLK        CLEAR     -3  -8  79 CALM      30.43S
ALBION         CLEAR      0  -6  74 CALM      30.42S
BLAIR          CLEAR      4  -4  69 CALM      30.47R
COLUMBUS *     CLEAR      0 -11  60 CALM      30.46S
FREMONT        CLEAR      1  -5  74 W3        30.49R
TEKAMAH        CLEAR      0  -6  76 W3        30.51R
WAYNE          FAIR      -9 -15  77 S3        30.47R
$$

NEZ050>053-065>068-078-088>093-051200-
SOUTHEAST NEBRASKA

CITY           SKY/WX    TMP DP  RH WIND       PRES   REMARKS
LINCOLN        CLEAR      2  -4  76 N5        30.50S WCI  -8
OMAHA EPPLEY   CLEAR      5  -2  72 CALM      30.51R
BEATRICE       CLEAR      4  -2  77 CALM      30.48S
FALLS CITY     CLEAR      5  -3  69 NW3       30.52R
NEBRASKA CITY  CLEAR      6  -6  58 CALM      30.50R
PLATTSMOUTH    CLEAR      4  -5  67 CALM      30.49S
$$

NEZ044-045-051>053-067-051200-
OMAHA AREA

CITY           SKY/WX    TMP DP  RH WIND       PRES   REMARKS
OMAHA EPPLEY   CLEAR      5  -2  72 CALM      30.51R
BLAIR          CLEAR      4  -4  69 CALM      30.47R
FREMONT        CLEAR      1  -5  74 W3        30.49R
MILLARD        CLEAR      6  -1  70 CALM      30.50S
OFFUTT AFB     CLEAR      1  -4  80 CALM      30.50R
PLATTSMOUTH    CLEAR      4  -5  67 CALM      30.49S
WAHOO          FAIR       3  -3  79 CALM      30.49S
$$


USA.gov is the U.S. government's official web portal to all federal, state and local government web resources and services.